,,PA_Meas_PMT16A,,PR_Meas_QMR101_102,,RH_Meas_QMH101,,SR_Meas_QMS101,,TA_Meas_QMH101,,GenWind,,GenWind,
time,status,PA,status,PR,status,RH,status,SR,status,TA,status,DirAvg,status,SpdAvg,
2013-12-12, 00:00:04,VALID,916.43,VALID,0,VALID,96.5429,VALID,0,VALID,20.1708,VALID,13,VALID,0,
2013-12-12, 00:01:04,VALID,916.437,VALID,0,VALID,96.5811,VALID,0,VALID,20.1708,VALID,32,VALID,0,
2013-12-12, 00:02:04,VALID,916.425,VALID,0,VALID,96.5811,VALID,0,VALID,20.1903,VALID,32,VALID,0,
2013-12-12, 00:03:04,VALID,916.453,VALID,0,VALID,96.6039,VALID,0.107441,VALID,20.1498,VALID,32,VALID,0,
2013-12-12, 00:04:04,VALID,916.441,VALID,0,VALID,96.6115,VALID,0.107441,VALID,20.1513,VALID,32,VALID,0,
2013-12-12, 00:05:04,VALID,916.448,VALID,0,VALID,96.6268,VALID,0,VALID,20.1498,VALID,32,VALID,0,
2013-12-12, 00:06:04,VALID,916.431,VALID,0,VALID,96.6573,VALID,0,VALID,20.1498,VALID,32,VALID,0,
2013-12-12, 00:07:04,VALID,916.4,VALID,0,VALID,96.6725,VALID,0.107441,VALID,20.1303,VALID,32,VALID,0,
2013-12-12, 00:08:04,VALID,916.383,VALID,0,VALID,96.6878,VALID,0.107441,VALID,20.1498,VALID,32,VALID,0,
2013-12-12, 00:09:04,VALID,916.381,VALID,0,VALID,96.703,VALID,0.107441,VALID,20.1708,VALID,32,VALID,0,
2013-12-12, 00:10:04,VALID,916.349,VALID,0,VALID,96.6954,VALID,0,VALID,20.1513,VALID,32,VALID,0,
2013-12-12, 00:11:04,VALID,916.333,VALID,0,VALID,96.7183,VALID,0,VALID,20.1513,VALID,32,VALID,0,
2013-12-12, 00:12:04,VALID,916.327,VALID,0,VALID,96.7183,VALID,0.107441,VALID,20.1708,VALID,32,VALID,0,
2013-12-12, 00:13:04,VALID,916.292,VALID,0,VALID,96.7335,VALID,0,VALID,20.1529,VALID,32,VALID,0,
2013-12-12, 00:14:04,VALID,916.289,VALID,0,VALID,96.7488,VALID,0,VALID,20.1529,VALID,32,VALID,0,
2013-12-12, 00:15:04,VALID,916.253,VALID,0,VALID,96.7411,VALID,0,VALID,20.1139,VALID,32,VALID,0,
2013-12-12, 00:16:04,VALID,916.276,VALID,0,VALID,96.7488,VALID,0,VALID,20.1139,VALID,32,VALID,0,
2013-12-12, 00:17:04,VALID,916.243,VALID,0,VALID,96.7564,VALID,0,VALID,20.1139,VALID,32,VALID,0,
2013-12-12, 00:18:04,VALID,916.244,VALID,0,VALID,96.764,VALID,0,VALID,20.0944,VALID,32,VALID,0,
2013-12-12, 00:19:04,VALID,916.213,VALID,0,VALID,96.7716,VALID,0,VALID,20.0944,VALID,32,VALID,0,
2013-12-12, 00:20:04,VALID,916.252,VALID,0,VALID,96.7793,VALID,0,VALID,20.0944,VALID,31,VALID,0,
2013-12-12, 00:21:04,VALID,916.239,VALID,0,VALID,96.7869,VALID,0,VALID,20.0944,VALID,31,VALID,0,
2013-12-12, 00:22:04,VALID,916.262,VALID,0,VALID,96.8021,VALID,0,VALID,20.0733,VALID,31,VALID,0,
2013-12-12, 00:23:04,VALID,916.246,VALID,0,VALID,96.8174,VALID,0,VALID,20.0944,VALID,20,VALID,0,
2013-12-12, 00:24:04,VALID,916.254,VALID,0,VALID,96.8021,VALID,0,VALID,20.0944,VALID,19,VALID,0,
2013-12-12, 00:25:04,VALID,916.206,VALID,0,VALID,96.7945,VALID,0,VALID,20.0944,VALID,20,VALID,0,
2013-12-12, 00:26:04,VALID,916.202,VALID,0,VALID,96.8174,VALID,0,VALID,20.0944,VALID,20,VALID,0,
2013-12-12, 00:27:04,VALID,916.179,VALID,0,VALID,96.8098,VALID,0,VALID,20.0944,VALID,20,VALID,0,
2013-12-12, 00:28:04,VALID,916.176,VALID,0,VALID,96.8098,VALID,0,VALID,20.1123,VALID,20,VALID,0,
2013-12-12, 00:29:04,VALID,916.156,VALID,0,VALID,96.8021,VALID,0,VALID,20.1123,VALID,20,VALID,0,
2013-12-12, 00:30:04,VALID,916.136,VALID,0,VALID,96.8021,VALID,0,VALID,20.1123,VALID,20,VALID,0,
2013-12-12, 00:31:04,VALID,916.113,VALID,0,VALID,96.8174,VALID,0.107441,VALID,20.1318,VALID,20,VALID,0,
2013-12-12, 00:32:04,VALID,916.091,VALID,0,VALID,96.8326,VALID,0,VALID,20.1108,VALID,20,VALID,0,
2013-12-12, 00:33:04,VALID,916.096,VALID,0,VALID,96.8326,VALID,0.107441,VALID,20.1318,VALID,7,VALID,0,
2013-12-12, 00:34:04,VALID,916.112,VALID,0,VALID,96.8403,VALID,0.107441,VALID,20.0913,VALID,7,VALID,0,
2013-12-12, 00:35:04,VALID,916.103,VALID,0,VALID,96.8326,VALID,0.107441,VALID,20.1123,VALID,7,VALID,0,
2013-12-12, 00:36:04,VALID,916.085,VALID,0,VALID,96.825,VALID,0,VALID,20.1123,VALID,7,VALID,0,
2013-12-12, 00:37:04,VALID,916.101,VALID,0,VALID,96.8403,VALID,0,VALID,20.0928,VALID,7,VALID,0,
2013-12-12, 00:38:04,VALID,916.106,VALID,0,VALID,96.8403,VALID,0.107441,VALID,20.1123,VALID,7,VALID,0,
2013-12-12, 00:39:04,VALID,916.095,VALID,0,VALID,96.8403,VALID,0,VALID,20.1318,VALID,7,VALID,0,
2013-12-12, 00:40:04,VALID,916.083,VALID,0,VALID,96.825,VALID,0,VALID,20.1513,VALID,7,VALID,0,
2013-12-12, 00:41:04,VALID,916.094,VALID,0,VALID,96.8479,VALID,0,VALID,20.1513,VALID,7,VALID,0,
2013-12-12, 00:42:04,VALID,916.112,VALID,0,VALID,96.8479,VALID,0,VALID,20.1708,VALID,7,VALID,0,
2013-12-12, 00:43:04,VALID,916.067,VALID,0,VALID,96.8479,VALID,0,VALID,20.1903,VALID,7,VALID,0,
2013-12-12, 00:44:04,VALID,916.073,VALID,0,VALID,96.8479,VALID,0.107441,VALID,20.1693,VALID,7,VALID,0,
2013-12-12, 00:45:04,VALID,916.085,VALID,0,VALID,96.8555,VALID,0,VALID,20.1693,VALID,7,VALID,0,
2013-12-12, 00:46:04,VALID,916.053,VALID,0,VALID,96.8555,VALID,0,VALID,20.2098,VALID,7,VALID,0,
2013-12-12, 00:47:04,VALID,916.066,VALID,0,VALID,96.8479,VALID,0.107441,VALID,20.2504,VALID,7,VALID,0,
2013-12-12, 00:48:04,VALID,916.037,VALID,0,VALID,96.8403,VALID,0,VALID,20.2293,VALID,7,VALID,0,
2013-12-12, 00:49:04,VALID,916.011,VALID,0,VALID,96.8707,VALID,0.107441,VALID,20.2293,VALID,7,VALID,0,
2013-12-12, 00:50:04,VALID,915.983,VALID,0,VALID,96.8403,VALID,0.107441,VALID,20.2293,VALID,7,VALID,0,
2013-12-12, 00:51:04,VALID,915.951,VALID,0,VALID,96.8403,VALID,0.107441,VALID,20.2293,VALID,7,VALID,0,
2013-12-12, 00:52:04,VALID,915.933,VALID,0,VALID,96.8555,VALID,0,VALID,20.2489,VALID,7,VALID,0,
2013-12-12, 00:53:04,VALID,915.927,VALID,0,VALID,96.8555,VALID,0,VALID,20.2684,VALID,7,VALID,0,
2013-12-12, 00:54:04,VALID,915.875,VALID,0,VALID,96.8555,VALID,0,VALID,20.2684,VALID,7,VALID,0,
2013-12-12, 00:55:04,VALID,915.87,VALID,0,VALID,96.8631,VALID,0.107441,VALID,20.2879,VALID,7,VALID,0,
2013-12-12, 00:56:04,VALID,915.811,VALID,0,VALID,96.8555,VALID,0,VALID,20.3074,VALID,7,VALID,0,
2013-12-12, 00:57:04,VALID,915.803,VALID,0,VALID,96.8555,VALID,0.107441,VALID,20.2879,VALID,7,VALID,0,
2013-12-12, 00:58:04,VALID,915.796,VALID,0,VALID,96.8555,VALID,0.107441,VALID,20.2489,VALID,7,VALID,0,
2013-12-12, 00:59:04,VALID,915.743,VALID,0,VALID,96.8479,VALID,0.107441,VALID,20.2684,VALID,26,VALID,0,
2013-12-12, 01:00:04,VALID,915.773,VALID,0,VALID,96.8555,VALID,0,VALID,20.2879,VALID,30,VALID,0,
2013-12-12, 01:01:04,VALID,915.786,VALID,0,VALID,96.8403,VALID,0.107441,VALID,20.2879,VALID,24,VALID,0,
2013-12-12, 01:02:04,VALID,915.788,VALID,0,VALID,96.8707,VALID,0.107441,VALID,20.3074,VALID,34,VALID,0,
2013-12-12, 01:03:04,VALID,915.784,VALID,0,VALID,96.8631,VALID,0.107441,VALID,20.3074,VALID,30,VALID,0,
2013-12-12, 01:04:04,VALID,915.787,VALID,0,VALID,96.8707,VALID,0.107441,VALID,20.3074,VALID,30,VALID,0,
2013-12-12, 01:05:04,VALID,915.789,VALID,0,VALID,96.8784,VALID,0.107441,VALID,20.3074,VALID,30,VALID,0,
2013-12-12, 01:06:04,VALID,915.785,VALID,0,VALID,96.8707,VALID,0,VALID,20.3269,VALID,30,VALID,0,
2013-12-12, 01:07:04,VALID,915.803,VALID,0,VALID,96.8631,VALID,0.107441,VALID,20.3269,VALID,30,VALID,0,
2013-12-12, 01:08:04,VALID,915.755,VALID,0,VALID,96.8631,VALID,0.107441,VALID,20.3479,VALID,30,VALID,0,
2013-12-12, 01:09:04,VALID,915.76,VALID,0,VALID,96.8631,VALID,0.107441,VALID,20.3269,VALID,30,VALID,0,
2013-12-12, 01:10:04,VALID,915.755,VALID,0,VALID,96.8784,VALID,0,VALID,20.3074,VALID,18,VALID,0,
2013-12-12, 01:11:04,VALID,915.739,VALID,0,VALID,96.8784,VALID,0.107441,VALID,20.3269,VALID,22,VALID,0,
2013-12-12, 01:12:04,VALID,915.717,VALID,0,VALID,96.8707,VALID,0.107441,VALID,20.3269,VALID,341,VALID,0,
2013-12-12, 01:13:04,VALID,915.709,VALID,0,VALID,96.886,VALID,0,VALID,20.3089,VALID,8,VALID,0,
2013-12-12, 01:14:04,VALID,915.688,VALID,0,VALID,96.886,VALID,0,VALID,20.3089,VALID,8,VALID,0,
2013-12-12, 01:15:04,VALID,915.678,VALID,0,VALID,96.886,VALID,0,VALID,20.3089,VALID,8,VALID,0,
2013-12-12, 01:16:04,VALID,915.661,VALID,0,VALID,96.8784,VALID,0,VALID,20.3074,VALID,7,VALID,0,
2013-12-12, 01:17:04,VALID,915.621,VALID,0,VALID,96.8936,VALID,0,VALID,20.3479,VALID,8,VALID,0,
2013-12-12, 01:18:04,VALID,915.586,VALID,0,VALID,96.8707,VALID,0,VALID,20.3284,VALID,8,VALID,0,
2013-12-12, 01:19:04,VALID,915.59,VALID,0,VALID,96.8784,VALID,0,VALID,20.3089,VALID,3,VALID,0,
2013-12-12, 01:20:04,VALID,915.558,VALID,0,VALID,96.886,VALID,0,VALID,20.2894,VALID,14,VALID,0,
2013-12-12, 01:21:04,VALID,915.545,VALID,0,VALID,96.8707,VALID,0,VALID,20.2894,VALID,14,VALID,0,
2013-12-12, 01:22:04,VALID,915.518,VALID,0,VALID,96.8936,VALID,0,VALID,20.2894,VALID,14,VALID,0,
2013-12-12, 01:23:04,VALID,915.505,VALID,0,VALID,96.8936,VALID,0,VALID,20.2894,VALID,14,VALID,0,
2013-12-12, 01:24:04,VALID,915.48,VALID,0,VALID,96.8784,VALID,0,VALID,20.2699,VALID,14,VALID,0,
2013-12-12, 01:25:04,VALID,915.489,VALID,0,VALID,96.8784,VALID,0,VALID,20.2894,VALID,327,VALID,0,
2013-12-12, 01:26:04,VALID,915.457,VALID,0,VALID,96.8936,VALID,0,VALID,20.2894,VALID,14,VALID,0,
2013-12-12, 01:27:04,VALID,915.413,VALID,0,VALID,96.9012,VALID,0,VALID,20.2699,VALID,350,VALID,0,
2013-12-12, 01:28:04,VALID,915.409,VALID,0,VALID,96.8936,VALID,0,VALID,20.2309,VALID,13,VALID,0,
2013-12-12, 01:29:04,VALID,915.429,VALID,0,VALID,96.886,VALID,0,VALID,20.2309,VALID,5,VALID,0,
2013-12-12, 01:30:04,VALID,915.415,VALID,0,VALID,96.8936,VALID,0,VALID,20.2114,VALID,356,VALID,0,
2013-12-12, 01:31:04,VALID,915.392,VALID,0,VALID,96.8936,VALID,0,VALID,20.1919,VALID,353,VALID,0,
2013-12-12, 01:32:04,VALID,915.388,VALID,0,VALID,96.8936,VALID,0,VALID,20.1529,VALID,20,VALID,0,
2013-12-12, 01:33:04,VALID,915.385,VALID,0,VALID,96.9241,VALID,0,VALID,20.1529,VALID,23,VALID,0,
2013-12-12, 01:34:04,VALID,915.361,VALID,0,VALID,96.9012,VALID,0,VALID,20.1318,VALID,344,VALID,0,
2013-12-12, 01:35:04,VALID,915.34,VALID,0,VALID,96.9089,VALID,0,VALID,20.1334,VALID,1,VALID,0,
2013-12-12, 01:36:04,VALID,915.383,VALID,0,VALID,96.9012,VALID,0,VALID,20.1334,VALID,354,VALID,0,
2013-12-12, 01:37:04,VALID,915.341,VALID,0,VALID,96.9165,VALID,0,VALID,20.1139,VALID,340,VALID,0,
2013-12-12, 01:38:04,VALID,915.302,VALID,0,VALID,96.9241,VALID,0,VALID,20.0944,VALID,330,VALID,0,
2013-12-12, 01:39:04,VALID,915.289,VALID,0,VALID,96.9089,VALID,0,VALID,20.0749,VALID,6,VALID,0,
2013-12-12, 01:40:04,VALID,915.252,VALID,0,VALID,96.9241,VALID,0,VALID,20.0553,VALID,357,VALID,0,
2013-12-12, 01:41:04,VALID,915.216,VALID,0,VALID,96.9317,VALID,0,VALID,20.0553,VALID,9,VALID,0,
2013-12-12, 01:42:04,VALID,915.191,VALID,0,VALID,96.9241,VALID,0,VALID,20.0553,VALID,2,VALID,0,
2013-12-12, 01:43:04,VALID,915.177,VALID,0,VALID,96.9317,VALID,0,VALID,20.0343,INVALID,360,VALID,0,
2013-12-12, 01:44:04,VALID,915.154,VALID,0,VALID,96.947,VALID,0,VALID,20.0553,VALID,357,VALID,0,
2013-12-12, 01:45:04,VALID,915.154,VALID,0,VALID,96.9394,VALID,0,VALID,20.0749,VALID,360,VALID,0,
2013-12-12, 01:46:04,VALID,915.146,VALID,0,VALID,96.947,VALID,0,VALID,20.0749,VALID,9,VALID,0,
2013-12-12, 01:47:04,VALID,915.14,VALID,0,VALID,96.947,VALID,0,VALID,20.0749,VALID,7,VALID,0,
2013-12-12, 01:48:04,VALID,915.146,VALID,0,VALID,96.9546,VALID,0,VALID,20.0944,VALID,21,VALID,0,
2013-12-12, 01:49:04,VALID,915.086,VALID,0,VALID,96.9317,VALID,0,VALID,20.1349,VALID,357,VALID,0,
2013-12-12, 01:50:04,VALID,915.096,VALID,0,VALID,96.9394,VALID,0,VALID,20.1349,VALID,16,VALID,0,
2013-12-12, 01:51:04,VALID,915.082,VALID,0,VALID,96.9394,VALID,0,VALID,20.1139,VALID,359,VALID,0,
2013-12-12, 01:52:04,VALID,915.084,VALID,0,VALID,96.9394,VALID,0,VALID,20.1139,VALID,7,VALID,0,
2013-12-12, 01:53:04,VALID,915.086,VALID,0,VALID,96.9394,VALID,0,VALID,20.0944,VALID,8,VALID,0,
2013-12-12, 01:54:04,VALID,915.095,VALID,0,VALID,96.9317,VALID,0,VALID,20.1349,VALID,8,VALID,0,
2013-12-12, 01:55:04,VALID,915.066,VALID,0,VALID,96.947,VALID,0,VALID,20.1334,INVALID,360,VALID,0,
2013-12-12, 01:56:04,VALID,915.073,VALID,0,VALID,96.9394,VALID,0,VALID,20.1139,VALID,360,VALID,0,
2013-12-12, 01:57:04,VALID,915.088,VALID,0,VALID,96.9394,VALID,0,VALID,20.1334,VALID,337,VALID,0,
2013-12-12, 01:58:04,VALID,915.047,VALID,0,VALID,96.9317,VALID,0.107441,VALID,20.1123,VALID,337,VALID,0,
2013-12-12, 01:59:04,VALID,915.05,VALID,0,VALID,96.9317,VALID,0.107441,VALID,20.1318,VALID,337,VALID,0,
2013-12-12, 02:00:04,VALID,915.044,VALID,0,VALID,96.9241,VALID,0,VALID,20.1513,VALID,355,VALID,0,
2013-12-12, 02:01:04,VALID,915.036,VALID,0,VALID,96.9241,VALID,0.107441,VALID,20.1513,VALID,358,VALID,0,
2013-12-12, 02:02:04,VALID,915.058,VALID,0,VALID,96.9241,VALID,0,VALID,20.1708,VALID,358,VALID,0,
2013-12-12, 02:03:04,VALID,915.047,VALID,0,VALID,96.9241,VALID,0.107441,VALID,20.1903,VALID,15,VALID,0,
2013-12-12, 02:04:04,VALID,914.992,VALID,0,VALID,96.9317,VALID,0,VALID,20.1708,VALID,15,VALID,0,
2013-12-12, 02:05:04,VALID,915.001,VALID,0,VALID,96.9394,VALID,0.107441,VALID,20.1693,VALID,14,VALID,0,
2013-12-12, 02:06:04,VALID,914.984,VALID,0,VALID,96.9394,VALID,0.107441,VALID,20.1303,VALID,311,VALID,0,
2013-12-12, 02:07:04,VALID,914.956,VALID,0,VALID,96.9165,VALID,0,VALID,20.1318,VALID,311,VALID,0,
2013-12-12, 02:08:04,VALID,914.934,VALID,0,VALID,96.9317,VALID,0,VALID,20.1303,VALID,357,VALID,0,
2013-12-12, 02:09:04,VALID,914.915,VALID,0,VALID,96.9089,VALID,0.107441,VALID,20.1318,VALID,354,VALID,0,
2013-12-12, 02:10:04,VALID,914.906,VALID,0,VALID,96.886,VALID,0,VALID,20.1123,VALID,19,VALID,0,
2013-12-12, 02:11:04,VALID,914.912,VALID,0,VALID,96.9089,VALID,0.107441,VALID,20.0928,VALID,7,VALID,0,
2013-12-12, 02:12:04,VALID,914.864,VALID,0,VALID,96.8936,VALID,0.107441,VALID,20.0913,VALID,5,VALID,0,
2013-12-12, 02:13:04,VALID,914.885,VALID,0,VALID,96.9165,VALID,0,VALID,20.0733,VALID,11,VALID,0,
2013-12-12, 02:14:04,VALID,914.874,VALID,0,VALID,96.886,VALID,0,VALID,20.1334,VALID,3,VALID,0,
2013-12-12, 02:15:04,VALID,914.866,VALID,0,VALID,96.8936,VALID,0,VALID,20.1529,VALID,3,VALID,0,
2013-12-12, 02:16:04,VALID,914.805,VALID,0,VALID,96.8936,VALID,0,VALID,20.1334,VALID,336,VALID,0,
2013-12-12, 02:17:04,VALID,914.807,VALID,0,VALID,96.8784,VALID,0,VALID,20.0928,VALID,320,VALID,0,
2013-12-12, 02:18:04,VALID,914.798,VALID,0,VALID,96.8707,VALID,0,VALID,20.0944,VALID,341,VALID,0,
2013-12-12, 02:19:04,VALID,914.786,VALID,0,VALID,96.886,VALID,0,VALID,20.1139,VALID,340,VALID,0,
2013-12-12, 02:20:04,VALID,914.769,VALID,0,VALID,96.886,VALID,0,VALID,20.0928,VALID,341,VALID,0,
2013-12-12, 02:21:04,VALID,914.782,VALID,0,VALID,96.886,VALID,0,VALID,20.0733,VALID,341,VALID,0,
2013-12-12, 02:22:04,VALID,914.765,VALID,0,VALID,96.9012,VALID,0,VALID,20.0944,VALID,342,VALID,0,
2013-12-12, 02:23:04,VALID,914.744,VALID,0,VALID,96.8631,VALID,0,VALID,20.1139,VALID,342,VALID,0,
2013-12-12, 02:24:04,VALID,914.737,VALID,0,VALID,96.886,VALID,0,VALID,20.0928,VALID,346,VALID,0,
2013-12-12, 02:25:04,VALID,914.697,VALID,0,VALID,96.8631,VALID,0,VALID,20.0944,VALID,346,VALID,0,
2013-12-12, 02:26:04,VALID,914.692,VALID,0,VALID,96.8479,VALID,0,VALID,20.0749,VALID,346,VALID,0,
2013-12-12, 02:27:04,VALID,914.695,VALID,0,VALID,96.8555,VALID,0,VALID,20.1139,VALID,346,VALID,0,
2013-12-12, 02:28:04,VALID,914.66,VALID,0,VALID,96.8631,VALID,0,VALID,20.0718,VALID,345,VALID,0,
2013-12-12, 02:29:04,VALID,914.647,VALID,0,VALID,96.8479,VALID,0,VALID,20.0928,VALID,345,VALID,0,
2013-12-12, 02:30:04,VALID,914.648,VALID,0,VALID,96.8555,VALID,0,VALID,20.1123,VALID,346,VALID,0,
2013-12-12, 02:31:04,VALID,914.619,VALID,0,VALID,96.8403,VALID,0,VALID,20.1318,VALID,346,VALID,0,
2013-12-12, 02:32:04,VALID,914.631,VALID,0,VALID,96.8555,VALID,0,VALID,20.1318,VALID,346,VALID,0,
2013-12-12, 02:33:04,VALID,914.597,VALID,0,VALID,96.825,VALID,0,VALID,20.1513,VALID,346,VALID,0,
2013-12-12, 02:34:04,VALID,914.606,VALID,0,VALID,96.8174,VALID,0.107441,VALID,20.1303,VALID,346,VALID,0,
2013-12-12, 02:35:04,VALID,914.632,VALID,0,VALID,96.8326,VALID,0,VALID,20.1513,VALID,346,VALID,0,
2013-12-12, 02:36:04,VALID,914.621,VALID,0,VALID,96.8174,VALID,0.107441,VALID,20.1513,VALID,346,VALID,0,
2013-12-12, 02:37:04,VALID,914.595,VALID,0,VALID,96.8174,VALID,0.107441,VALID,20.1708,VALID,346,VALID,0,
2013-12-12, 02:38:04,VALID,914.591,VALID,0,VALID,96.8174,VALID,0.107441,VALID,20.1903,VALID,346,VALID,0,
2013-12-12, 02:39:04,VALID,914.603,VALID,0,VALID,96.8021,VALID,0.107441,VALID,20.2098,VALID,346,VALID,0,
2013-12-12, 02:40:04,VALID,914.582,VALID,0,VALID,96.7793,VALID,0.107441,VALID,20.1888,VALID,346,VALID,0,
2013-12-12, 02:41:04,VALID,914.581,VALID,0,VALID,96.8021,VALID,0.107441,VALID,20.2083,VALID,346,VALID,0,
2013-12-12, 02:42:04,VALID,914.549,VALID,0,VALID,96.7869,VALID,0.107441,VALID,20.1888,VALID,346,VALID,0,
2013-12-12, 02:43:04,VALID,914.562,VALID,0,VALID,96.7793,VALID,0,VALID,20.2114,VALID,5,VALID,0,
2013-12-12, 02:44:04,VALID,914.514,VALID,0,VALID,96.764,VALID,0,VALID,20.2114,VALID,5,VALID,0,
2013-12-12, 02:45:04,VALID,914.542,VALID,0,VALID,96.764,VALID,0,VALID,20.2114,VALID,5,VALID,0,
2013-12-12, 02:46:04,VALID,914.506,VALID,0,VALID,96.7564,VALID,0,VALID,20.1919,VALID,5,VALID,0,
2013-12-12, 02:47:04,VALID,914.531,VALID,0,VALID,96.7564,VALID,0,VALID,20.2114,VALID,5,VALID,0,
2013-12-12, 02:48:04,VALID,914.467,VALID,0,VALID,96.7488,VALID,0,VALID,20.2114,VALID,5,VALID,0,
2013-12-12, 02:49:04,VALID,914.468,VALID,0,VALID,96.7411,VALID,0,VALID,20.1903,VALID,5,VALID,0,
2013-12-12, 02:50:04,VALID,914.453,VALID,0,VALID,96.7488,VALID,0,VALID,20.2114,VALID,5,VALID,0,
2013-12-12, 02:51:04,VALID,914.446,VALID,0,VALID,96.7259,VALID,0,VALID,20.1903,VALID,343,VALID,0,
2013-12-12, 02:52:04,VALID,914.402,VALID,0,VALID,96.7335,VALID,0,VALID,20.1708,VALID,336,VALID,0,
2013-12-12, 02:53:04,VALID,914.41,VALID,0,VALID,96.7107,VALID,0,VALID,20.1919,VALID,337,VALID,0,
2013-12-12, 02:54:04,VALID,914.399,VALID,0,VALID,96.6878,VALID,0,VALID,20.1529,VALID,343,VALID,0,
2013-12-12, 02:55:04,VALID,914.381,VALID,0,VALID,96.6802,VALID,0,VALID,20.1529,VALID,343,VALID,0,
2013-12-12, 02:56:04,VALID,914.353,VALID,0,VALID,96.6802,VALID,0,VALID,20.1334,VALID,343,VALID,0,
2013-12-12, 02:57:04,VALID,914.349,VALID,0,VALID,96.6725,VALID,0,VALID,20.1334,VALID,343,VALID,0,
2013-12-12, 02:58:04,VALID,914.346,VALID,0,VALID,96.6802,VALID,0,VALID,20.1318,VALID,349,VALID,0,
2013-12-12, 02:59:04,VALID,914.329,VALID,0,VALID,96.6573,VALID,0,VALID,20.1318,VALID,349,VALID,0,
2013-12-12, 03:00:04,VALID,914.328,VALID,0,VALID,96.6649,VALID,0.107441,VALID,20.1318,VALID,356,VALID,0,
2013-12-12, 03:01:04,VALID,914.317,VALID,0,VALID,96.6344,VALID,0,VALID,20.1318,VALID,358,VALID,0,
2013-12-12, 03:02:04,VALID,914.32,VALID,0,VALID,96.6649,VALID,0,VALID,20.1318,VALID,359,VALID,0,
2013-12-12, 03:03:04,VALID,914.324,VALID,0,VALID,96.6268,VALID,0,VALID,20.1123,INVALID,360,VALID,0,
2013-12-12, 03:04:04,VALID,914.337,VALID,0,VALID,96.6039,VALID,0,VALID,20.0928,VALID,359,VALID,0,
2013-12-12, 03:05:04,VALID,914.323,VALID,0,VALID,96.6115,VALID,0,VALID,20.1123,VALID,359,VALID,0,
2013-12-12, 03:06:04,VALID,914.37,VALID,0,VALID,96.6039,VALID,0,VALID,20.0733,VALID,359,VALID,0,
2013-12-12, 03:07:04,VALID,914.349,VALID,0,VALID,96.5963,VALID,0,VALID,20.0538,VALID,359,VALID,0,
2013-12-12, 03:08:04,VALID,914.349,VALID,0,VALID,96.5811,VALID,0,VALID,20.0343,VALID,359,VALID,0,
2013-12-12, 03:09:04,VALID,914.337,VALID,0,VALID,96.5811,VALID,0,VALID,20.0343,VALID,359,VALID,0,
2013-12-12, 03:10:04,VALID,914.323,VALID,0,VALID,96.5734,VALID,0,VALID,20.0538,VALID,358,VALID,0,
2013-12-12, 03:11:05,VALID,914.296,VALID,0,VALID,96.5811,VALID,0.107441,VALID,20.0538,VALID,358,VALID,0,
2013-12-12, 03:12:04,VALID,914.257,VALID,0,VALID,96.5734,VALID,0,VALID,20.0343,VALID,358,VALID,0,
2013-12-12, 03:13:05,VALID,914.235,VALID,0,VALID,96.5734,VALID,0,VALID,20.0358,VALID,358,VALID,0,
2013-12-12, 03:14:05,VALID,914.238,VALID,0,VALID,96.5506,VALID,0,VALID,20.0358,VALID,358,VALID,0,
2013-12-12, 03:15:05,VALID,914.229,VALID,0,VALID,96.5658,VALID,0,VALID,20.0358,VALID,358,VALID,0,
2013-12-12, 03:16:05,VALID,914.208,VALID,0,VALID,96.5277,VALID,0,VALID,20.0358,VALID,358,VALID,0,
2013-12-12, 03:17:05,VALID,914.201,VALID,0,VALID,96.5429,VALID,0,VALID,20.0163,VALID,358,VALID,0,
2013-12-12, 03:18:05,VALID,914.187,VALID,0,VALID,96.5506,VALID,0,VALID,20.0163,VALID,359,VALID,0,
2013-12-12, 03:19:05,VALID,914.197,VALID,0,VALID,96.5582,VALID,0,VALID,19.9773,VALID,358,VALID,0,
2013-12-12, 03:20:05,VALID,914.177,VALID,0,VALID,96.5658,VALID,0,VALID,19.9773,VALID,358,VALID,0,
2013-12-12, 03:21:05,VALID,914.166,VALID,0,VALID,96.5811,VALID,0,VALID,19.9968,VALID,358,VALID,0,
2013-12-12, 03:22:05,VALID,914.169,VALID,0,VALID,96.5734,VALID,0,VALID,19.9773,VALID,358,VALID,0,
2013-12-12, 03:23:05,VALID,914.145,VALID,0,VALID,96.5887,VALID,0,VALID,19.9578,VALID,358,VALID,0,
2013-12-12, 03:24:05,VALID,914.146,VALID,0,VALID,96.6115,VALID,0,VALID,19.9578,VALID,333,VALID,0,
2013-12-12, 03:25:05,VALID,914.117,VALID,0,VALID,96.5963,VALID,0,VALID,19.9383,VALID,345,VALID,0,
2013-12-12, 03:26:05,VALID,914.128,VALID,0,VALID,96.5887,VALID,0,VALID,19.9188,VALID,354,VALID,0,
2013-12-12, 03:27:05,VALID,914.135,VALID,0,VALID,96.5963,VALID,0,VALID,19.8993,VALID,359,VALID,0,
2013-12-12, 03:28:05,VALID,914.137,VALID,0,VALID,96.5963,VALID,0,VALID,19.8993,VALID,348,VALID,0,
2013-12-12, 03:29:05,VALID,914.121,VALID,0,VALID,96.6039,VALID,0,VALID,19.8993,VALID,348,VALID,0,
2013-12-12, 03:30:05,VALID,914.089,VALID,0,VALID,96.6039,VALID,0,VALID,19.8798,VALID,348,VALID,0,
2013-12-12, 03:31:05,VALID,914.127,VALID,0,VALID,96.642,VALID,0,VALID,19.8993,VALID,348,VALID,0,
2013-12-12, 03:32:05,VALID,914.14,VALID,0,VALID,96.642,VALID,0,VALID,19.8798,VALID,348,VALID,0,
2013-12-12, 03:33:05,VALID,914.106,VALID,0,VALID,96.6344,VALID,0,VALID,19.8798,VALID,348,VALID,0,
2013-12-12, 03:34:05,VALID,914.116,VALID,0,VALID,96.6497,VALID,0,VALID,19.8798,VALID,348,VALID,0,
2013-12-12, 03:35:05,VALID,914.139,VALID,0,VALID,96.6573,VALID,0,VALID,19.8798,VALID,348,VALID,0,
2013-12-12, 03:36:05,VALID,914.125,VALID,0,VALID,96.6649,VALID,0,VALID,19.8798,VALID,348,VALID,0,
2013-12-12, 03:37:05,VALID,914.133,VALID,0,VALID,96.6649,VALID,0,VALID,19.8798,VALID,348,VALID,0,
2013-12-12, 03:38:05,VALID,914.11,VALID,0,VALID,96.6649,VALID,0,VALID,19.8408,VALID,342,VALID,0,
2013-12-12, 03:39:05,VALID,914.119,VALID,0,VALID,96.6878,VALID,0,VALID,19.8618,VALID,342,VALID,0,
2013-12-12, 03:40:05,VALID,914.117,VALID,0,VALID,96.6573,VALID,0,VALID,19.8603,VALID,342,VALID,0,
2013-12-12, 03:41:05,VALID,914.108,VALID,0,VALID,96.6725,VALID,0,VALID,19.8798,VALID,342,VALID,0,
2013-12-12, 03:42:05,VALID,914.072,VALID,0,VALID,96.6725,VALID,0,VALID,19.8408,VALID,341,VALID,0,
2013-12-12, 03:43:05,VALID,914.071,VALID,0,VALID,96.6725,VALID,0.107441,VALID,19.8588,VALID,340,VALID,0,
2013-12-12, 03:44:05,VALID,914.075,VALID,0,VALID,96.6725,VALID,0.107441,VALID,19.8393,VALID,340,VALID,0,
2013-12-12, 03:45:05,VALID,914.072,VALID,0,VALID,96.703,VALID,0,VALID,19.8393,VALID,340,VALID,0,
2013-12-12, 03:46:05,VALID,914.09,VALID,0,VALID,96.6878,VALID,0.107441,VALID,19.8198,VALID,340,VALID,0,
2013-12-12, 03:47:05,VALID,914.051,VALID,0,VALID,96.6802,VALID,0,VALID,19.8198,VALID,340,VALID,0,
2013-12-12, 03:48:05,VALID,914.047,VALID,0,VALID,96.6954,VALID,0,VALID,19.8198,VALID,340,VALID,0,
2013-12-12, 03:49:05,VALID,914.054,VALID,0,VALID,96.6954,VALID,0,VALID,19.8018,VALID,340,VALID,0,
2013-12-12, 03:50:05,VALID,914.039,VALID,0,VALID,96.7107,VALID,0.107441,VALID,19.7808,VALID,340,VALID,0,
2013-12-12, 03:51:05,VALID,914.082,VALID,0,VALID,96.6878,VALID,0,VALID,19.7613,VALID,340,VALID,0,
2013-12-12, 03:52:05,VALID,914.078,VALID,0,VALID,96.6954,VALID,0.107441,VALID,19.7418,VALID,340,VALID,0,
2013-12-12, 03:53:05,VALID,914.054,VALID,0,VALID,96.7107,VALID,0.107441,VALID,19.7418,VALID,340,VALID,0,
2013-12-12, 03:54:05,VALID,914.063,VALID,0,VALID,96.7259,VALID,0,VALID,19.7028,VALID,340,VALID,0,
2013-12-12, 03:55:05,VALID,914.03,VALID,0,VALID,96.7259,VALID,0,VALID,19.7028,VALID,340,VALID,0,
2013-12-12, 03:56:05,VALID,914.05,VALID,0,VALID,96.7411,VALID,0,VALID,19.6833,VALID,340,VALID,0,
2013-12-12, 03:57:05,VALID,914.034,VALID,0,VALID,96.7335,VALID,0,VALID,19.6443,VALID,340,VALID,0,